Regional Weather Roundup
Issued by NWS Green Bay, WI

Home | Current Version | Previous Version | Graphics & Text | Print | Product List | Glossary Off
Versions: 1 2 3 4 5 6 7 8 9 10 11 12 13 14 15 16 17 18 19 20 21 22 23 24 25 26 27 28 29 30 31 32 33 34 35 36 37 38 39 40 41 42 43 44 45 46 47 48 49 50

000
ASUS43 KGRB 251100
RWRGRB

NORTH-CENTRAL AND NORTHEAST WISCONSIN REGIONAL WEATHER ROUNDUP
NATIONAL WEATHER SERVICE GREEN BAY WI
500 AM CST SAT FEB 25 2017

WIZ005-009-010>012-018-019-251200-
NORTH CENTRAL WISCONSIN

CITY           SKY/WX    TMP DP  RH WIND       PRES   REMARKS
IRONWOOD       LGT SNOW  14  11  87 NW15      29.67S FOG     WCI  -1
MANITOWISH WTR NOT AVBL
ARBOR VITAE    NOT AVBL
EAGLE RIVER    NOT AVBL
LAND O LAKES   NOT AVBL
RHINELANDER    LGT SNOW  16  11  80 NW9G17    29.60R WCI   4
PHILLIPS       CLOUDY    12   6  77 NW9G17    29.67R WCI   0
ANTIGO         NOT AVBL
TOMAHAWK       NOT AVBL
MERRILL        NOT AVBL
$$

WIZ013-073-251200-
NORTHEAST WISCONSIN

CITY           SKY/WX    TMP DP  RH WIND       PRES   REMARKS
IRON MOUNTAIN  LGT SNOW  17  11  77 NW14      29.53R WCI   3
MARINETTE      LGT SNOW  19  16  88 NW13G21   29.56R FOG     WCI   6
$$

WIZ017-030-035>037-045-251200-
CENTRAL WISCONSIN

CITY           SKY/WX    TMP DP  RH WIND       PRES   REMARKS
MEDFORD        NOT AVBL
WAUSAU         FLURRIES  16   9  74 NW16G26   29.63R WCI   1
MOSINEE        NOT AVBL
MARSHFIELD     FLURRIES  15   6  67 NW20G26   29.68R WCI  -2
WISC RAPIDS    LGT SNOW  16  12  84 NW15      29.70R FOG     WCI   1
STEVENS POINT  NOT AVBL
WAUPACA        NOT AVBL
SHAWANO        LGT SNOW  20  17  84 CALM      29.63R
CLINTONVILLE   NOT AVBL
WAUTOMA        LGT SNOW  17  14  88 NW14      29.70R FOG     WCI   3
$$

WIZ038-039-048-051-251200-
FOX VALLEY

CITY           SKY/WX    TMP DP  RH WIND       PRES   REMARKS
NWS GREEN BAY  LGT SNOW  20  18  92 NW18      29.61R FOG     WCI   5
APPLETON       NOT AVBL
OSHKOSH        LGT SNOW  19  15  84 NW14      29.63R FOG     WCI   6
FOND DU LAC    LGT SNOW  20  14  77 NW20      29.64R WCI   4
$$

WIZ022-050-052-251200-
EAST CENTRAL WISCONSIN

CITY           SKY/WX    TMP DP  RH WIND       PRES   REMARKS
EPHRAIM        NOT AVBL
WASHINGTON ISL NOT AVBL
STURGEON BAY   LGT SNOW  20  17  88 NW16G22   29.56R FOG     WCI   6
MANITOWOC      NOT AVBL
SHEBOYGAN      LGT SNOW  21  16  81 NW16      29.59R WCI   7
$$

LMZ563-521-522-541>543-251200-
LAKESHORE

STATION/POSITION TIME  TEMP    WIND        PRES    VSBY  WAVE
                       AIR SEA DIR/SP/G                  HT/PER
                 (UTC) (F)     (DEG/KT/KT) (MB)    (MI)  (FT/S)
SHEBOYGAN LKSHOR 1000   22     290/  5/  7 1002.4R
KEWAUNEE LKSHORE 1030   21     310/ 16/ 20 1000.7R
NORTHPORT PIER   1040   23     310/  2/  3  999.3S
SISTER BAY LKSHO 1005   22        CALM       N/A
CHAMBERS ISLAND  1040   21     300/  2/  3 1000.0R
MENOMINEE LKSHOR 1030   20     290/ 12/ 17 1000.1R
$$



USA.gov is the U.S. government's official web portal to all federal, state and local government web resources and services.